STARLINK-32508 (62158 NORAD) Tracking and Keplerian Element Data

This shows tracking and keplerian element data for the satellite.

Feedback or suggestion? Click here.




ElementValue
Catalog62158
NameSTARLINK-32508
Epoch Orbit1142
Epoch Day35.01218748
Epoch Year2025
RAAN256.8704
Inclination42.9981
Eccentricity0.0001646
Argument of Perigee262.8117
Mean Anonmoly97.2549
Mean Motion15.32094977
Decay Rate5.82E-06
L11 62158U 24224V 25035.01218748 .00000582 00000+0 27101-4 0 9991
L22 62158 42.9981 256.8704 0001646 262.8117 97.2549 15.32094977 11424



Live tracking and technical data element details for STARLINK-32508 (NORAD 62158). STARLINK-32508 can be tracked NOW for your location showing map with azimuth and elevation plus other details from your city location.







IsCatalogInMostPopularTable: catalog: 62158, numindb: 14
Update: records affected: 1



GetName: 62158 STARLINK-32508

Hit Count: updated at: Mon, 19 May 2025 03:28:42 GMT